Regional Weather Roundup
Issued by NWS

Home | Current Version | Previous Version | Graphics & Text | Print | Product List | Glossary On
Versions: 1 2 3 4 5 6 7 8 9 10 11 12 13 14 15 16 17 18 19 20 21 22 23 24 25 26 27 28 29 30 31 32 33 34 35 36 37 38 39 40 41 42 43 44 45 46 47 48 49 50
000
ASUS43 KDTX 230310
RWRMI
MICHIGAN HOURLY REGIONAL WEATHER ROUNDUP
NATIONAL WEATHER SERVICE DETROIT/PONTIAC MI
1100 PM EDT SAT JUL 22 2017

NOTE: "FAIR" INDICATES FEW OR NO CLOUDS BELOW 12,000 FEET WITH NO
SIGNIFICANT WEATHER AND/OR OBSTRUCTION TO VISIBILITY.

MIZ047>049-052>055-059>063-066>070-074>076-081>083-230400-
SOUTHEAST LOWER MICHIGAN

CITY           SKY/WX    TMP DP  RH WIND       PRES   REMARKS
ADRIAN         FAIR      73  69  87 NW5       29.82R
ALMA           PTCLDY    67  65  93 N8        29.83F
ANN ARBOR      CLOUDY    74  69  85 NW5       29.81R
BAD AXE        CLOUDY    66  64  94 NE6       29.83F
CARO           DRIZZLE   67  65  94 N6        29.81F
DETROIT CITY   CLOUDY    77  70  79 N6        29.79R
DETROIT        MOCLDY    76  70  82 NW8       29.80R
FLINT          CLOUDY    71  68  90 N8        29.81R
GROSSE ILE     MOCLDY    77  70  79 W3        29.78S
HILLSDALE      MOCLDY    70  66  88 W6        29.83F
HOWELL         CLOUDY    70  68  93 NW3       29.82S

CITY           SKY/WX    TMP DP  RH WIND       PRES   REMARKS
JACKSON        CLOUDY    74  69  85 NW7       29.83S
LAMBERTVILLE   FAIR      74  69  85 CALM      29.79S
LANSING        PTCLDY    70  66  87 N3        29.83R
LAPEER         CLOUDY    71  69  93 N7        29.81S
MASON          CLOUDY    72  68  88 N5        29.83R
MONROE         CLOUDY    74  71  90 CALM      29.79R
PONTIAC        PTCLDY    72  70  93 NW7       29.80R
PORT HOPE        N/A     70  65  84 E9        29.82R
PORT HURON     MOCLDY    70  68  94 NW3       29.79S FOG
TRI CITIES     CLOUDY    70  69  97 N6        29.83R FOG
MIDLAND        CLOUDY    68  67  96 N5        29.82S
TROY           CLOUDY    75  70  84 CALM      29.81S
SAGINAW HB     CLOUDY    68  64  88 CALM      29.81F
$$
MIZ043>046-050>051-056>058-064>065-071>073-077>080-230400-
SOUTHWEST LOWER MICHIGAN

CITY           SKY/WX    TMP DP  RH WIND       PRES   REMARKS
BATTLE CREEK   CLEAR     71  69  93 W7        29.84R
BENTON HARBOR  CLEAR     70  67  90 CALM      29.83R
BIG RAPIDS     CLOUDY    71  66  85 S6        29.83R
COLDWATER      FAIR      71  71 100 W3        29.84S
FREMONT        FAIR      69  67  96 CALM      29.82S
HOLLAND        FOG       68  67  96 CALM      29.84S VSB 1/2
GRAND RAPIDS   CLOUDY    71  70  96 W8        29.83S FOG
IONIA          MOCLDY    70  68  94 NE6       29.83R
KALAMAZOO      CLEAR     72  67  84 NW3       29.84R
LUDINGTON      CLOUDY    64  64 100 CALM      29.80S
MARSHALL       CLOUDY    72  72  98 W5        29.84R
MOUNT PLEASANT CLOUDY    70  66  88 CALM      29.83S
MUSKEGON       PTCLDY    69  67  93 CALM      29.82S FOG
SOUTH HAVEN    PTCLDY    69  68  97 CALM      29.83F
$$
MIZ016>042-230400-
NORTHERN LOWER MICHIGAN

CITY           SKY/WX    TMP DP  RH WIND       PRES   REMARKS
ALPENA         CLOUDY    68  67  96 SE5       29.85S
BEAVER ISLAND  CLOUDY    69  66  91 E6        29.80F
BELLAIRE       CLOUDY    71  65  81 SE3       29.81S
CADILLAC       CLOUDY    72  66  83 E6        29.84R
CHARLEVOIX     PTCLDY    73  65  78 E8        29.83F
FRANKFORT      CLOUDY    69  67  93 CALM      29.79F
GAYLORD        PTCLDY    67  63  87 S8        29.85S
GRAYLING       CLOUDY    66  63  88 SE6       29.85S
HARBOR SPRINGS PTCLDY    70  67  92 E8        29.82S
HOUGHTON LAKE  CLOUDY    67  64  90 E7        29.85R
MANISTEE       CLEAR     66  65  96 E3        29.80R
OSCODA         CLOUDY    69  65  86 NW5       29.83S
PELLSTON       MOCLDY    66  65  96 CALM      29.83S
ROGERS CITY    CLOUDY    68  64  85 S3        29.85S
TRAVERSE CITY  MOCLDY    69  64  84 CALM      29.79R
$$
MIZ007>008-015-230400-
EASTERN UPPER MICHIGAN

CITY           SKY/WX    TMP DP  RH WIND       PRES   REMARKS
KINROSS        CLOUDY    67  63  87 E7        29.84S
MACKINAC ISLAN PTCLDY    68  67  96 SE9       29.82F
NEWBERRY       PTCLDY    65  64  97 SE6       29.81F
S. S. MARIE    CLOUDY    68  58  70 CALM      29.84S
MUNISING         N/A     69  65  86 S3        29.79S
$$
MIZ004>006-011>014-085-230400-
CENTRAL UPPER MICHIGAN

CITY           SKY/WX    TMP DP  RH WIND       PRES   REMARKS
MANISTIQUE     CLOUDY    67  64  90 E8        29.79F
ESCANABA       LGT RAIN  68  66  94 S6        29.82R
MENOMINEE      CLOUDY    70  66  87 SE5       29.79R
SAWYER-GWINN   CLOUDY    66  64  93 S8        29.82S
$$
MIZ001>003-009>011-084-230400-
WESTERN UPPER MICHIGAN

CITY           SKY/WX    TMP DP  RH WIND       PRES   REMARKS
IRON MOUNTAIN  CLOUDY    65  62  90 CALM      29.79S
HOUGHTON       MOCLDY    59  54  83 N3        29.82R
COPPER HARBOR    N/A     56  51  84 SE3       29.81R
IRONWOOD       CLEAR     62  60  93 CALM      29.82S
$$

ABBREVIATIONS USED IN REMARKS
   TC - TEMPERATURE IN CELSIUS
  WCI - WIND CHILL INDEX
   HX - HEAT INDEX
  VSB - VISIBILITY





USA.gov is the U.S. government's official web portal to all federal, state and local government web resources and services.